Regional Weather Roundup
Issued by NWS

Home | Current Version | Previous Version | Graphics & Text | Print | Product List | Glossary On
Versions: 1 2 3 4 5 6 7 8 9 10 11 12 13 14 15 16 17 18 19 20 21 22 23 24 25 26 27 28 29 30 31 32 33 34 35 36 37 38 39 40 41 42 43 44 45 46 47 48 49 50
000
ASUS45 KBOU 291407
RWRCO

WEATHER ROUNDUP FOR COLORADO
NATIONAL WEATHER SERVICE DENVER/BOULDER CO
800 AM MDT TUE JUL 29 2014

NOTE: "FAIR" INDICATES FEW OR NO CLOUDS BELOW 12000 FEET WITH NO
SIGNIFICANT WEATHER AND/OR OBSTRUCTIONS TO VISIBILITY.

COZ001>005-013-030-031-291500-
...NORTHWEST COLORADO...

CITY           SKY/WX    TMP DP  RH WIND       PRES   REMARKS
CRAIG          CLOUDY    57  55  93 CALM      30.35R
HAYDEN         CLOUDY    63  48  59 CALM      30.36S
MEEKER         CLOUDY    63  53  70 NE3       30.36R
MOUNT WERNER   NOT AVBL
STEAMBOAT SPGS CLOUDY    59  50  72 CALM      30.38S
WALDEN         PTSUNNY   54  45  71 CALM      30.44R
$$

COZ006>008-011-291500-
...WEST CENTRAL VALLEYS...

CITY           SKY/WX    TMP DP  RH WIND       PRES   REMARKS
GRAND JUNCTION CLOUDY    64  60  87 SE12      30.28R
MONTROSE       LGT RAIN  62  58  86 N6        30.35S
EAGLE          CLOUDY    57  52  82 CALM      30.40R
RIFLE          LGT RAIN  62  59  90 W3        30.33R
DELTA          CLOUDY    66  61  85 SW3       30.33R
NUCLA          CLOUDY    61  59  94 NW6       30.38R
$$

COZ017>023-064>068-291500-
...SOUTHWEST COLORADO...

CITY           SKY/WX    TMP DP  RH WIND       PRES   REMARKS
DURANGO        CLOUDY    60  56  86 CALM      30.38R
CORTEZ         CLOUDY    62  61  96 CALM      30.35R
PAGOSA SPRINGS PTSUNNY   59  53  79 CALM      30.45R
TELLURIDE      CLOUDY    52  52 100 E3        30.53S
WOLF CREEK PAS NOT AVBL
$$

COZ009-010-012-014-032>034-037-058>063-291500-
...CENTRAL COLORADO...

CITY           SKY/WX    TMP DP  RH WIND       PRES   REMARKS
ASPEN          CLOUDY    55  51  86 SE3       30.44S
BUENA VISTA    CLOUDY    55  51  86 CALM      30.45S
COPPER MTN     CLOUDY    46  41  81 W14       30.69F
BERTHOUD PASS  FAIR      41  30  65 N3        30.75R
COTTONWOOD PAS CLOUDY    54  50  87 SE5       30.56S
GUNNISON       CLOUDY    55  52  88 NE3       30.48S
KREMMLING      PTSUNNY   55  45  67 CALM      30.43S
LEADVILLE      PTSUNNY   48  45  89 CALM      30.54F
MONARCH PASS   FOG       43  41  93 W16       30.79R VSB<1/4
SALIDA         PTSUNNY   58  54  86 CALM      30.49F
SUNLIGHT       LGT RAIN  50  48  93 CALM      30.63S
WILKERSON PASS PTSUNNY   48  39  71 E12       30.67S
$$

COZ069>075-291500-
...SAN LUIS VALLEY/SANGRE DE CRISTO MOUNTAINS...

CITY           SKY/WX    TMP DP  RH WIND       PRES   REMARKS
ALAMOSA        CLOUDY    54  54 100 CALM      30.44R FOG
LA VETA PASS   FOG       48  46  93 SW8       30.58R VSB 1/4
SAGUACHE       PTSUNNY   55  52  88 N5        30.47S
$$

COZ035-036-038>040-291500-
...NORTHERN COLORADO FRONT RANGE...

CITY           SKY/WX    TMP DP  RH WIND       PRES   REMARKS
DENVER INTL AP PTSUNNY   67  57  70 W9        30.26R
DMNS CITY PARK   N/A     69  57  65 W6        30.27R
AURORA         PTSUNNY   66  55  68 SW8       30.29R
FRONT RANGE AP NOT AVBL
ERIE MUNI ARPT MOSUNNY   68  58  69 N7        30.25S
BOULDER MUN AP MOSUNNY   70  55  60 CALM      30.26S
CENTENNIAL     PTSUNNY   66  52  60 W8        30.30R
BROOMFIELD     PTSUNNY   68  57  68 NW9       30.28S
FORT COLLINS   PTSUNNY   64  57  77 N7        30.26S
LONGMONT       PTSUNNY   73  58  58 NW7       30.26S
$$

COZ041-046-047-076>085-087-088-291500-
...PIKES PEAK/PALMER DIVIDE AND SOUTHERN FOOTHILLS...

CITY           SKY/WX    TMP DP  RH WIND       PRES   REMARKS
COLO. SPRINGS  PTSUNNY   65  59  81 CALM      30.33R
A. F. ACADEMY  MOSUNNY   61  55  80 CALM      30.34R
ELLICOTT         N/A     62  61  96 E5        30.31S FOG
FALCON         MOSUNNY   64  58  81 CALM      30.37R
FORT CARSON    MOSUNNY   65  58  79 CALM      30.31R
LIMON          FOG       59  59 100 CALM      30.28S VSB 1
MONUMENT HILL  SUNNY     63  52  67 CALM      30.36R
TRINIDAD       CLOUDY    64  58  80 SW8       30.30R
$$

COZ042>045-048>051-090-091-291500-
...NORTHEAST COLORADO...

CITY           SKY/WX    TMP DP  RH WIND       PRES   REMARKS
GREELEY ARPT   MOSUNNY   64  54  68 CALM      30.24R
AKRON          SUNNY     71  57  61 VRB3      30.24R
BURLINGTON     MOSUNNY   66  60  81 S13       30.23R
WRAY             N/A     67  58  73 E7        30.23R
STERLING       SUNNY     68  61  77 NE6       30.21S
HOLYOKE        SUNNY     63  59  88 SE9       30.24R
FORT MORGAN    SUNNY     68  58  71 E5        30.24R
$$

COZ086-089-092>099-291500-
...SOUTHEAST COLORADO...

CITY           SKY/WX    TMP DP  RH WIND       PRES   REMARKS
PUEBLO         CLOUDY    66  63  90 CALM      30.25R
LA JUNTA       PTSUNNY   71  63  75 CALM      30.20S
LAMAR          MOSUNNY   75  63  66 SW12      30.17S
SPRINGFIELD      N/A     67  64  90 S15       30.24R
$$


USA.gov is the U.S. government's official web portal to all federal, state and local government web resources and services.